Regional Weather Roundup
Issued by NWS

Home | Current Version | Previous Version | Graphics & Text | Print | Product List | Glossary On
Versions: 1 2 3 4 5 6 7 8 9 10 11 12 13 14 15 16 17 18 19 20 21 22 23 24 25 26 27 28 29 30 31 32 33 34 35 36 37 38 39 40 41 42 43 44 45 46 47 48 49 50
000
ASUS45 KABQ 232310
RWRNM
NEW MEXICO REGIONAL WEATHER ROUNDUP
NATIONAL WEATHER SERVICE ALBUQUERQUE NM
500 PM MDT TUE AUG 23 2016

NOTE: "FAIR" MEANS FEW OR NO CLOUDS BELOW 12,000 FEET AGL WITH NO
       SIGNIFICANT WEATHER OR OBSTRUCTIONS TO VISION.

      THIS PRODUCT IS RELEASED AS TWO VERSIONS.  ONE VERSION NEAR
      THE TOP OF THE HOUR CONTAINING PRELIMINARY DATA FROM ALBUQUERQUE
      AND OTHER STATIONS.  A FINAL VERSION WITH ADDITIONAL DATA IS
      ISSUED ABOUT 10 MINUTES AFTER THE HOUR.

NMZ501-503-504-510>518-240000-
NORTHWEST PLATEAU/NORTHCENTRAL MOUNTAINS

CITY           SKY/WX    TMP DP  RH WIND       PRES   REMARKS
FARMINGTON     FAIR      65  52  62 N9        30.20R
LOS ALAMOS     FAIR      68  46  46 W9G16     30.27F
SANTA FE       FAIR      76  43  30 W14G24    30.20F
TAOS           FAIR      72  43  35 SW18G24   30.24
ANGEL FIRE     FAIR      69  37  31 W10G17    30.31F

$$
NMZ402-403-502-505>509-240000-
WESTCENTRAL MOUNTAINS/SOUTHWEST MOUNTAINS

CITY           SKY/WX    TMP DP  RH WIND       PRES   REMARKS
GALLUP         CLOUDY    66  48  52 SW21G29   30.26F
GRANTS         PTSUNNY   71  41  32 W21G28    30.28R
SILVER CITY    PTSUNNY   81  40  23 W17G24    30.17F

$$
NMZ407-409-411-412-240000-
SOUTHERN DESERTS

CITY           SKY/WX    TMP DP  RH WIND       PRES   REMARKS
LORDSBURG      FAIR      90  41  18 W21G26    30.09F
DEMING         FAIR      89  47  23 W16       30.08F
LAS CRUCES     FAIR      90  43  20 W15       30.08F
HOLLOMAN AFB   FAIR      85  58  39 E5        30.02F
ALAMOGORDO     FAIR      88  54  31 W5        30.05F
T OR C         FAIR      88  37  16 VRB3      30.07F

$$
NMZ519>523-240000-
CENTRAL VALLEYS/CENTRAL HIGHLANDS

CITY           SKY/WX    TMP DP  RH WIND       PRES   REMARKS
ALBUQUERQUE    FAIR      81  42  25 W14G21    30.14F
DOUBLE EAGLE   PTSUNNY   81  41  24 W13G18    30.18F
MORIARTY ARPT  FAIR      79  41  26 W16       30.21F
CLINES CORNERS FAIR      75  42  30 W20G25    30.25S
BELEN          PTSUNNY   84  38  19 NW8G16    30.12F
SOCORRO        PTSUNNY   87  42  21 NW14G23   30.08S

$$
NMZ524>526-539-540-240000-
SOUTHCENTRAL MOUNTAINS

CITY           SKY/WX    TMP DP  RH WIND       PRES   REMARKS
RUIDOSO          N/A     77  43  29 SW10      30.24F

$$
NMZ527>531-240000-
NORTHEAST HIGHLANDS/NORTHEAST PLAINS

CITY           SKY/WX    TMP DP  RH WIND       PRES   REMARKS
LAS VEGAS      FAIR      78  36  21 W23       30.21S
RATON          PTSUNNY   86  37  17 W8        30.07F
CLAYTON        FAIR      88  46  23 S15       30.02S

$$
NMZ532>537-240000-
EASTCENTRAL PLAINS

CITY           SKY/WX    TMP DP  RH WIND       PRES   REMARKS
TUCUMCARI      FAIR      95  43  16 W14       29.97F
CANNON AFB     PTSUNNY   89  47  23 W14       30.04S
CLOVIS AIRPORT PTSUNNY   90  48  24 W13       30.04S

$$
NMZ028-029-538-240000-
SOUTHEAST PLAINS

CITY           SKY/WX    TMP DP  RH WIND       PRES   REMARKS
ROSWELL        FAIR      87  60  40 SE14      30.00F
ARTESIA        FAIR      86  63  45 SW12      30.00F
CARLSBAD       TSTM      66  64  93 SE22      30.04F VSB 1/2
HOBBS          MOSUNNY   84  59  42 SE20      30.07S


$$




USA.gov is the U.S. government's official web portal to all federal, state and local government web resources and services.